Change the Weather History Date:

Monday, May 20, 2013

  Actual Average Record
Temperature  
Mean Temperature 69 °F 59 °F  
Max Temperature 81 °F 71 °F 91 °F (1962)
Min Temperature 56 °F 48 °F 29 °F (2002)
Degree Days  
Heating Degree Days 0 6  
Month to date heating degree days 135 178  
Since 1 July heating degree days 6197 6571  
Cooling Degree Days 4 1  
Month to date cooling degree days 5 9  
Year to date cooling degree days 5 13  
Growing Degree Days 18 (Base 50)    
Moisture  
Dew Point 59 °F    
Average Humidity 77    
Maximum Humidity 100    
Minimum Humidity 54    
Precipitation  
Precipitation 0.00 in 0.12 in 1.82 in (1889)
Month to date precipitation 1.04 2.22  
Year to date precipitation 9.13 13.39  
Snow  
Snow 0.00 in 0.00 in 0.00 in ()
Month to date snowfall 0.0 0.1  
Since 1 July snowfall 51.4 59.1  
Snow Depth 0.00 in    
Sea Level Pressure  
Sea Level Pressure 30.03 in    
Wind  
Wind Speed 4 mph (South)    
Max Wind Speed 13 mph    
Max Gust Speed -    
Visibility 10 miles    
Events      
T = Trace of Precipitation, MM = Missing Value Source: NWS Daily Summary

Daily Weather History Graph

Daily Weather History Graph

Search for Another Location

Airport or City:

Trip Planner

Search our weather history database for the weather conditions in past years. The results will help you decide how hot, cold, wet, or windy it might be!

Date:

Astronomy

May. 20, 2013 Rise Set
Actual Time 5:27 AM EDT 8:16 PM EDT
Civil Twilight 4:54 AM EDT 8:49 PM EDT
Nautical Twilight 4:13 AM EDT 9:31 PM EDT
Astronomical Twilight 3:24 AM EDT 10:19 PM EDT
Moon 3:14 PM EDT (5/20) 2:28 AM EDT (5/20)
Length of Visible Light 15h 54m
Length of Day
14h 48m
Waxing Gibbous, 75% of the Moon is Illuminated
May 20
Waxing Gibbous
May 25
Full
May 31
Last Quarter
Jun 8
New
Jun 16
First Quarter

Hourly Weather History & Observations

Time (EDT) Temp. Heat Index Dew Point Humidity Pressure Visibility Wind Dir Wind Speed Gust Speed Precip Events Conditions
12:08 AM 57.2 °F - 53.6 °F 88% 30.15 in 10.0 mi South 10.4 mph - N/A   Overcast
12:51 AM 57.9 °F - 53.1 °F 84% 30.15 in 10.0 mi South 9.2 mph - N/A   Overcast
1:51 AM 57.0 °F - 54.0 °F 89% 30.13 in 10.0 mi South 9.2 mph - N/A   Overcast
2:35 AM 57.2 °F - 53.6 °F 88% 30.10 in 10.0 mi South 12.7 mph - N/A   Overcast
2:51 AM 57.0 °F - 54.0 °F 89% 30.10 in 10.0 mi South 10.4 mph - N/A   Overcast
3:51 AM 57.0 °F - 54.0 °F 89% 30.08 in 10.0 mi South 6.9 mph - N/A   Overcast
4:51 AM 57.0 °F - 54.0 °F 89% 30.06 in 10.0 mi South 5.8 mph - N/A   Overcast
5:51 AM 55.9 °F - 55.0 °F 97% 30.08 in 7.0 mi South 5.8 mph - N/A   Overcast
6:51 AM 57.0 °F - 55.0 °F 93% 30.09 in 6.0 mi South 3.5 mph - N/A   Overcast
7:51 AM 57.9 °F - 55.0 °F 90% 30.09 in 7.0 mi South 4.6 mph - N/A   Overcast
8:51 AM 59.0 °F - 55.9 °F 90% 30.08 in 9.0 mi South 3.5 mph - N/A   Overcast
9:32 AM 62.6 °F - 57.2 °F 82% 30.08 in 10.0 mi South 5.8 mph - N/A   Overcast
9:51 AM 62.1 °F - 57.0 °F 84% 30.09 in 10.0 mi Calm Calm - N/A   Overcast
10:51 AM 64.9 °F - 57.9 °F 78% 30.06 in 10.0 mi Variable 3.5 mph - N/A   Overcast
11:51 AM 68.0 °F - 57.9 °F 70% 30.05 in 10.0 mi Calm Calm - N/A   Overcast
12:26 PM 71.6 °F - 60.8 °F 69% 30.03 in 10.0 mi Calm Calm - N/A   Mostly Cloudy
12:51 PM 72.0 °F - 61.0 °F 68% 30.02 in 10.0 mi East 3.5 mph - N/A   Mostly Cloudy
1:51 PM 75.2 °F - 62.6 °F 65% 30.01 in 10.0 mi WNW 8.1 mph - N/A   Mostly Cloudy
2:51 PM 75.9 °F - 62.1 °F 62% 29.99 in 10.0 mi NE 5.8 mph - N/A   Mostly Cloudy
3:51 PM 80.1 °F 81.2 °F 62.1 °F 54% 29.96 in 10.0 mi Calm Calm - N/A   Mostly Cloudy
4:51 PM 78.8 °F - 62.6 °F 57% 29.96 in 10.0 mi Variable 4.6 mph - N/A   Mostly Cloudy
5:51 PM 81.0 °F 81.9 °F 62.1 °F 52% 29.94 in 10.0 mi NNW 3.5 mph - N/A   Mostly Cloudy
6:51 PM 79.0 °F - 63.0 °F 58% 29.94 in 10.0 mi Calm Calm - N/A   Mostly Cloudy
7:51 PM 77.0 °F - 62.1 °F 60% 29.93 in 10.0 mi SE 3.5 mph - N/A   Mostly Cloudy
8:51 PM 72.0 °F - 63.0 °F 73% 29.94 in 10.0 mi Calm Calm - N/A   Scattered Clouds
9:51 PM 68.0 °F - 62.1 °F 81% 29.96 in 10.0 mi Calm Calm - N/A   Scattered Clouds
10:51 PM 66.9 °F - 63.0 °F 87% 29.96 in 10.0 mi North 4.6 mph - N/A   Scattered Clouds
11:51 PM 66.0 °F - 63.0 °F 90% 29.96 in 10.0 mi Calm Calm - N/A   Scattered Clouds